• Processing (Info)

  • MPEC 2016-U82 : 2016 UO36

    The following Minor Planet Electronic Circular may be linked-to from your own Web pages, but must not otherwise be redistributed electronically.

    A form allowing access to any MPEC is at the bottom of this page.


    Read MPEC 2016-U81 Read MPEC 2016-U83


    M.P.E.C. 2016-U82                                Issued 2016 Oct. 27, 14:17 UT
    
         The Minor Planet Electronic Circulars contain information on unusual
             minor planets and routine data on comets.  They are published
        on behalf of Division F of the International Astronomical Union by the
              Minor Planet Center, Smithsonian Astrophysical Observatory,
                              Cambridge, MA 02138, U.S.A.
    
                 Prepared using the Tamkin Foundation Computer Network
    
                                  MPC@CFA.HARVARD.EDU
                URL https://www.minorplanetcenter.net/    ISSN 1523-6714
    
                                       2016 UO36
    
    Observations:
         K16U36O* C2016 10 25.45235 01 06 52.881+19 37 44.79         21.6 wLEU082F51
         K16U36O  C2016 10 25.46505 01 06 53.670+19 37 14.98         21.7 wLEU082F51
         K16U36O  C2016 10 25.47764 01 06 54.464+19 36 45.26         21.5 wLEU082F51
         K16U36O  C2016 10 25.49017 01 06 55.250+19 36 15.65         21.6 wLEU082F51
         K16U36O KC2016 10 26.29244 01 07 58.45 +19 04 46.4          21.3 RoEU082291
         K16U36O KC2016 10 26.29469 01 07 58.59 +19 04 41.2          21.5 RoEU082291
         K16U36O KC2016 10 26.29694 01 07 58.73 +19 04 35.8          21.7 RoEU082291
         K16U36O  C2016 10 27.33189 01 09 21.47 +18 22 53.0          20.5 RoEU082926
         K16U36O  C2016 10 27.33971 01 09 22.06 +18 22 33.8          21.1 RoEU082926
         K16U36O  C2016 10 27.34988 01 09 22.74 +18 22 08.5          20.6 RoEU082926
    
    Observer details:
    291 LPL/Spacewatch II.  Observer R. A. Mastaler.  1.8-m f/2.7 reflector + CCD.
    926 Tenagra II Observatory.  Observers M. Schwartz, P. R. Holvorcem.  Measurer
        M. Schwartz.  0.81-m f/7 Ritchey-Chretien + CCD.
    F51 Pan-STARRS 1, Haleakala.  Observers B. Gibson, T. Goggia, S. Kahale,
        A. Schultz, M. Willman.  Measurers K. Chambers, S. Chastel, L. Denneau,
        H. Flewelling, M. Huber, E. Lilly, E. Magnier, R. Wainscoat, C. Waters,
        R. Weryk.  1.8-m Ritchey-Chretien + CCD.
    
    Orbital elements:
    2016 UO36                                                Earth MOID = 0.1749 AU
    Epoch 2016 July 31.0 TT = JDT 2457600.5                 MPC
    M 314.69289              (2000.0)            P               Q
    n   0.36116956     Peri.  203.69665     +0.41451215     -0.90149205
    a   1.9528188      Node   222.10926     +0.86181265     +0.43278910
    e   0.4095335      Incl.   10.69720     +0.29233307     +0.00238185
    P   2.73           H   23.5           G   0.15           U   8
    Residuals in seconds of arc
    161025 F51  0.1+  0.1-    161026 291  0.4+  0.2-    161027 926  0.6+  0.0
    161025 F51  0.2+  0.0     161026 291  0.3+  0.0     161027 926  0.2+  0.0
    161025 F51  0.3+  0.1-    161026 291  0.2+  0.0
    161025 F51  0.3+  0.1-    161027 926  0.1-  0.2-
    
    Ephemeris:
    2016 UO36                a,e,i = 1.95, 0.41, 11                  q = 1.1531
    Date    TT    R. A. (2000) Decl.     Delta      r     Elong.  Phase     V
    2016 09 27    00 45 29.5 +29 14 57   0.3635  1.3329   151.4    21.1    23.0
    ...
    2016 10 12    00 53 59.3 +26 15 51   0.2820  1.2676   160.8    15.0    22.1
    ...
    2016 10 20    01 00 44.5 +22 48 30   0.2489  1.2373   164.5    12.4    21.7
    ...
    2016 10 26    01 07 35.9 +19 16 29   0.2292  1.2171   165.2    12.1    21.5
    2016 10 27    01 08 55.4 +18 36 36   0.2264  1.2140   165.1    12.2    21.4
    2016 10 28    01 10 18.2 +17 55 29   0.2237  1.2109   164.8    12.4    21.4
    ...
    2016 11 03    01 19 50.6 +13 26 06   0.2104  1.1940   162.1    14.8    21.3
    ...
    2016 11 11    01 36 05.9 +06 47 39   0.2004  1.1756   155.8    20.2    21.4
    ...
    2016 11 26    02 15 51.3 -04 57 02   0.2046  1.1556   142.3    31.5    21.7
    
    A. U. Tomatic                (C) Copyright 2016 MPC           M.P.E.C. 2016-U82
    

    Read MPEC 2016-U81 Read MPEC 2016-U83


    MPEC number:

    Enter an MPEC number in one of the following forms:

    • 1997-B01 (the full form)
    • J97B01 (the packed version of the full form)
    • B01 (the abbreviated form)